Wind_Speed
46 47 48 49 49 50 50 50 51 50 49 50 51 53 54 55 56 58 59 60 61 62 63 64 65 66 68 69 69 70 71 71 71 72 72 73 73 74
47 48 48 49 50 50 51 52 53 53 52 52 54 55 57 59 60 61 62 64 65 66 67 69 70 71 72 73 73 74 75 76 76 76 77 78 78 79
48 48 49 49 50 51 52 53 54 56 55 55 57 59 61 62 64 65 66 67 68 69 71 72 73 74 75 76 77 78 78 79 80 81 82 82 83 84
47 49 50 51 52 53 54 55 56 58 58 58 59 61 63 65 66 67 68 69 70 71 72 73 74 74 75 76 76 77 78 79 80 81 82 83 83 83
49 50 51 53 53 55 56 57 58 60 61 62 63 64 66 67 68 68 69 70 71 72 72 72 73 74 74 75 76 77 77 78 78 78 78 77 77 77
50 52 53 54 55 56 57 59 61 62 64 65 66 66 67 68 69 70 70 71 71 72 72 73 74 75 76 76 76 75 75 75 74 72 71 70 70 69
52 53 55 55 56 58 59 61 63 65 66 67 67 67 68 69 69 70 70 70 70 72 72 73 73 73 72 72 71 71 70 69 67 65 64 63 62 61
53 54 55 57 58 60 62 64 66 67 67 68 69 69 68 69 69 70 70 70 70 70 71 69 69 67 67 66 66 65 63 61 60 59 58 57 56 55
54 55 57 59 61 63 64 66 66 67 68 69 69 69 69 69 69 70 70 70 69 68 66 63 63 61 60 59 58 57 55 53 51 50 49 47 46 46
55 57 59 61 63 65 65 65 66 67 68 69 69 69 69 69 70 70 69 67 64 62 61 58 56 54 53 52 51 50 48 45 43 42 40 40 39 38
57 59 60 62 64 66 66 66 66 66 67 68 68 68 68 68 68 67 64 62 58 56 56 54 51 49 48 47 45 44 41 38 37 35 34 34 33 31
58 60 62 64 65 66 66 66 66 67 67 67 66 66 66 64 63 62 59 57 55 52 51 49 46 44 41 40 39 38 35 33 32 30 29 28 27 26
59 61 63 64 65 65 66 67 67 67 66 65 64 63 61 59 58 57 55 54 51 48 46 44 41 39 36 33 33 32 30 28 26 26 25 24 23 21
60 62 63 64 65 65 66 67 67 66 64 62 61 58 56 55 54 53 52 50 48 45 42 40 38 35 32 30 29 28 26 24 23 22 21 19 18 17
61 62 64 64 65 65 65 65 65 63 60 59 57 55 53 52 52 51 49 46 43 40 38 37 34 31 29 27 26 24 22 21 20 19 17 16 15 14
62 63 64 65 65 65 64 63 61 58 57 55 54 52 51 50 49 47 45 42 39 37 35 33 30 28 27 25 23 21 19 18 17 16 14 13 12 12
63 64 64 65 64 63 62 60 57 56 55 53 52 50 49 47 46 43 40 37 35 33 33 31 28 26 24 21 19 18 17 16 14 13 12 11 11 11
64 64 65 64 63 61 59 57 55 54 52 51 49 48 45 43 41 38 35 33 32 30 29 27 25 23 21 18 17 16 14 13 12 11 10 10 9 9
65 65 65 63 61 59 57 54 52 50 48 47 45 43 41 39 36 34 32 30 29 27 25 23 22 20 18 17 15 14 13 11 10 9 8 8 8 7
65 65 63 60 58 56 53 51 49 47 45 43 42 40 38 35 34 32 30 28 26 25 23 21 19 18 16 15 14 12 11 9 8 7 7 7 7 6
64 62 60 57 55 52 50 48 46 44 42 41 39 37 36 34 32 30 28 26 24 23 21 19 18 16 15 13 12 11 9 8 7 6 6 6 6 6
61 59 56 53 51 49 47 45 43 41 40 38 36 35 34 32 30 28 25 23 22 21 19 17 16 15 14 12 11 10 8 7 6 6 6 6 6 6
57 55 52 50 48 46 44 43 41 39 37 36 35 33 32 30 27 24 22 21 20 18 16 15 14 13 12 11 10 9 8 7 7 7 7 7 7 7
Wind_Direction
296 297 298 298 297 297 297 296 296 295 295 295 294 294 294 293 292 291 291 290 289 288 287 286 285 284 283 282 281 280 278 277 276 275 273 272 271 270
297 297 298 298 298 297 297 297 297 297 297 296 296 295 295 294 293 293 292 291 290 289 288 287 286 285 284 283 282 281 279 278 277 275 274 273 272 270
297 298 298 298 298 298 298 298 298 298 298 297 297 297 296 296 295 294 294 293 292 291 290 289 288 287 285 284 283 282 281 279 278 276 275 274 272 271
298 298 299 299 299 299 299 299 299 299 299 299 298 298 297 296 296 295 294 294 293 293 292 291 289 288 287 286 284 283 282 281 280 278 276 275 273 272
298 299 299 299 299 299 299 299 300 300 300 299 299 299 298 297 297 296 296 295 295 294 293 292 291 290 289 287 286 285 284 282 281 279 277 276 274 272
299 300 300 300 300 300 300 300 300 301 300 300 300 299 299 298 297 297 296 296 296 295 294 293 292 290 289 288 287 286 284 283 281 280 278 276 275 273
300 300 300 300 301 301 301 302 302 301 301 301 301 300 300 299 298 298 298 297 296 296 295 294 293 292 291 290 288 287 285 284 281 280 278 277 275 273
301 301 301 301 302 302 302 303 303 302 302 301 301 301 301 300 299 299 299 298 297 296 295 295 294 293 292 291 290 289 287 284 282 280 279 277 276 274
301 301 302 302 302 303 303 304 304 303 303 303 303 303 302 301 301 301 300 300 299 298 297 296 296 295 294 292 291 290 288 285 283 281 279 277 275 273
302 302 302 303 303 304 304 304 304 304 304 304 304 304 303 303 302 302 302 301 301 300 299 298 297 297 296 294 293 291 289 287 284 282 279 277 275 273
303 303 304 305 305 305 305 305 305 305 305 305 305 305 304 304 303 303 303 303 302 301 300 300 299 298 297 295 293 291 290 288 285 283 280 278 276 273
304 305 306 306 306 306 306 306 306 306 305 305 305 305 305 305 305 304 304 304 304 302 301 301 300 299 298 295 293 293 292 290 286 283 280 278 275 273
306 306 307 307 307 306 306 307 307 307 306 305 305 305 305 306 306 306 306 306 305 304 303 302 302 301 300 297 295 295 294 291 287 284 281 277 274 271
307 307 308 308 308 308 308 308 307 307 306 306 307 307 306 306 307 307 307 306 306 305 304 303 303 302 300 298 297 296 294 291 288 285 281 276 273 270
308 308 309 309 309 309 309 308 308 307 307 307 308 307 307 307 307 307 307 307 307 306 305 305 304 302 301 299 297 295 293 291 288 283 279 274 270 266
309 309 309 310 310 310 310 309 308 308 308 308 308 308 308 308 308 307 307 306 306 306 306 305 304 302 301 300 298 295 293 290 286 281 276 271 265 261
309 310 310 311 311 311 311 309 308 308 308 308 308 308 308 309 308 308 307 306 306 305 305 305 304 303 302 300 297 295 293 289 285 279 273 267 261 257
310 311 311 311 311 310 310 309 308 308 308 308 308 309 309 309 309 309 308 307 307 306 305 304 303 303 301 298 296 295 293 288 283 275 269 262 257 252
311 311 311 311 311 310 309 309 309 309 309 309 310 310 309 309 309 309 308 308 307 306 304 303 302 302 300 296 295 294 291 285 277 268 261 253 249 245
311 312 311 311 311 310 309 309 309 310 310 311 311 310 310 310 309 308 307 306 305 304 303 301 300 300 298 296 294 292 287 279 269 259 249 242 239 233
311 312 311 311 311 310 310 310 310 310 310 311 311 310 310 309 308 306 305 304 303 302 301 299 297 295 294 293 289 286 280 269 256 246 236 229 222 217
312 312 311 311 310 310 310 310 310 310 310 310 310 310 309 309 307 305 305 303 302 300 298 295 293 291 289 286 282 278 270 255 242 232 225 216 207 202
312 312 311 310 310 310 310 310 309 309 309 309 309 309 309 308 307 305 303 302 301 298 295 293 291 288 285 281 276 270 257 243 232 222 214 205 200 196
Height
5693 5688 5684 5679 5675 5670 5665 5660 5656 5653 5650 5644 5638 5632 5627 5622 5617 5612 5607 5602 5598 5593 5588 5584 5580 5576 5572 5569 5566 5563 5560 5557 5556 5554 5552 5551 5550 5549
5682 5678 5673 5668 5663 5658 5653 5647 5642 5638 5635 5631 5624 5618 5612 5606 5601 5595 5590 5585 5579 5574 5569 5564 5559 5555 5550 5547 5543 5540 5536 5534 5532 5530 5528 5526 5525 5525
5672 5667 5662 5656 5651 5646 5640 5635 5629 5624 5620 5617 5610 5603 5596 5590 5583 5577 5571 5565 5559 5553 5547 5542 5536 5531 5527 5522 5518 5515 5511 5508 5505 5503 5501 5499 5498 5498
5660 5655 5650 5645 5639 5634 5628 5622 5616 5610 5604 5601 5595 5587 5580 5572 5566 5559 5552 5545 5539 5532 5526 5519 5513 5508 5502 5497 5493 5488 5484 5481 5478 5475 5473 5471 5469 5467
5649 5644 5638 5632 5627 5621 5615 5608 5602 5595 5589 5583 5578 5571 5563 5554 5547 5540 5533 5526 5518 5511 5504 5497 5491 5484 5478 5472 5467 5463 5458 5454 5451 5447 5444 5441 5439 5438
5637 5631 5625 5620 5614 5607 5601 5594 5587 5580 5573 5565 5559 5552 5545 5535 5527 5521 5515 5507 5499 5490 5482 5475 5468 5461 5454 5448 5443 5438 5433 5428 5424 5421 5418 5415 5414 5413
5625 5618 5612 5606 5599 5592 5586 5579 5571 5563 5555 5548 5541 5534 5526 5517 5508 5500 5494 5487 5480 5470 5462 5454 5445 5438 5430 5423 5418 5413 5408 5404 5401 5398 5395 5393 5392 5391
5612 5605 5599 5592 5585 5578 5570 5562 5554 5545 5537 5530 5522 5514 5506 5497 5489 5481 5473 5467 5461 5452 5441 5435 5424 5417 5409 5403 5396 5391 5387 5383 5380 5377 5375 5373 5372 5371
5598 5592 5585 5578 5570 5563 5555 5546 5537 5527 5518 5510 5503 5494 5486 5478 5470 5462 5453 5445 5438 5429 5420 5415 5406 5399 5391 5384 5377 5372 5368 5364 5362 5359 5357 5356 5355 5354
5585 5578 5571 5563 5554 5547 5539 5530 5521 5511 5501 5492 5483 5475 5466 5457 5449 5441 5433 5426 5419 5410 5401 5396 5390 5383 5375 5368 5361 5356 5353 5350 5347 5345 5343 5342 5341 5340
5571 5563 5555 5548 5539 5530 5522 5514 5505 5495 5484 5474 5465 5456 5447 5438 5429 5421 5414 5407 5401 5394 5385 5379 5374 5368 5362 5355 5348 5343 5340 5337 5335 5333 5332 5330 5330 5329
5558 5549 5540 5531 5522 5512 5504 5495 5487 5478 5468 5459 5449 5440 5430 5421 5412 5404 5396 5390 5384 5379 5371 5364 5359 5353 5350 5344 5337 5332 5329 5327 5325 5324 5322 5321 5321 5321
5543 5535 5525 5515 5506 5496 5487 5478 5469 5460 5451 5442 5433 5424 5415 5406 5398 5389 5382 5375 5369 5363 5357 5351 5347 5341 5336 5334 5329 5324 5321 5319 5317 5316 5315 5314 5314 5314
5529 5520 5511 5501 5491 5481 5471 5461 5451 5442 5433 5425 5417 5409 5400 5392 5385 5377 5369 5362 5356 5350 5345 5340 5336 5331 5327 5324 5321 5317 5314 5312 5310 5309 5308 5308 5308 5308
5513 5504 5495 5485 5475 5465 5455 5445 5435 5426 5417 5410 5402 5394 5387 5379 5372 5365 5357 5351 5345 5339 5335 5330 5327 5323 5319 5316 5313 5311 5309 5307 5305 5304 5304 5303 5303 5304
5498 5489 5480 5470 5460 5450 5440 5429 5420 5411 5403 5396 5388 5381 5374 5366 5359 5353 5346 5341 5336 5330 5325 5322 5318 5315 5312 5309 5307 5305 5303 5302 5300 5300 5299 5299 5299 5300
5484 5475 5465 5455 5445 5434 5424 5415 5406 5398 5390 5382 5375 5368 5361 5355 5348 5341 5336 5331 5327 5323 5318 5314 5311 5309 5306 5304 5302 5300 5298 5297 5296 5296 5296 5296 5296 5297
5468 5459 5449 5440 5430 5420 5411 5402 5393 5385 5377 5370 5363 5357 5350 5344 5337 5332 5327 5323 5319 5315 5311 5308 5305 5303 5301 5299 5298 5296 5294 5293 5293 5293 5293 5293 5294 5294
5452 5443 5433 5424 5414 5405 5396 5388 5380 5373 5365 5359 5352 5346 5340 5334 5329 5324 5319 5315 5312 5308 5305 5303 5300 5298 5296 5295 5293 5292 5291 5291 5290 5290 5291 5291 5292 5292
5436 5426 5417 5408 5399 5391 5383 5375 5368 5361 5354 5348 5342 5336 5331 5326 5321 5316 5312 5309 5305 5302 5300 5298 5296 5294 5293 5292 5290 5289 5289 5288 5288 5288 5289 5290 5290 5291
5420 5411 5402 5394 5385 5378 5370 5363 5357 5351 5344 5338 5332 5327 5322 5317 5313 5309 5305 5302 5299 5297 5295 5293 5291 5290 5289 5288 5287 5286 5286 5286 5286 5287 5288 5288 5289 5290
5405 5396 5388 5380 5373 5365 5359 5352 5346 5340 5334 5329 5324 5319 5314 5309 5305 5301 5298 5296 5294 5291 5290 5288 5287 5286 5285 5285 5284 5284 5284 5284 5285 5286 5286 5288 5289 5290
5390 5382 5375 5367 5360 5354 5348 5342 5336 5331 5325 5320 5315 5310 5306 5301 5298 5295 5292 5290 5288 5287 5285 5284 5283 5282 5282 5282 5281 5281 5282 5282 5283 5285 5286 5287 5288 5289